This demonstration page uses our WeatherBlox Daily Observations layout. Learn more.

Left ArrowRight Arrow

41.55636, -103.73856

Hourly Observations for July 13, 2017

Temp ( °F °C ) Dew Point ( °F °C ) Humidity (%) Winds ( mph kmh ) Pressure ( in mb ) Visibility ( mi km ) Precip ( " mm )
12:53 am 00:53 Clear 65 18.3 55 12.8 70 70 ENE 9 15 30.11 1020 10 16 0.00 0.00
1:53 am 01:53 Clear 64 17.8 55 12.8 73 73 E 9 15 30.10 1019 10 16 0.00 0.00
2:53 am 02:53 Clear 61 16.1 54 12.2 78 78 SSE 6 9 30.09 1019 10 16 0.00 0.00
3:53 am 03:53 Clear 58 14.4 54 12.2 87 87 Calm 30.08 1019 10 16 0.00 0.00
4:53 am 04:53 Clear 57 13.9 54 12.2 90 90 NNE 3 6 30.08 1019 9 14 0.00 0.00
5:53 am 05:53 Sunny 57 13.9 53 11.7 87 87 Calm 30.09 1019 9 14 0.00 0.00
6:53 am 06:53 Sunny 62 16.7 55 12.8 78 78 ESE 6 9 30.09 1019 10 16 0.00 0.00
7:53 am 07:53 Sunny 66 18.9 55 12.8 68 68 E 6 9 30.10 1019 10 16 0.00 0.00
8:53 am 08:53 Sunny 71 21.7 55 12.8 57 57 SE 7 11 30.10 1019 10 16 0.00 0.00
9:53 am 09:53 Sunny 75 23.9 56 13.3 52 52 ESE 7 11 30.10 1019 10 16 0.00 0.00
10:53 am 10:53 Sunny 80 26.7 58 14.4 47 47 SE 7 11 30.10 1019 10 16 0.00 0.00
11:53 am 11:53 Sunny 84 28.9 58 14.4 41 41 SE 12 19 30.09 1019 10 16 0.00 0.00
12:53 pm 12:53 Sunny 87 30.6 57 13.9 36 36 ESE 13 20 30.06 1018 10 16 0.00 0.00
1:53 pm 13:53 Sunny 89 31.7 55 12.8 31 31 SE 16 26 30.05 1018 10 16 0.00 0.00
2:53 pm 14:53 Sunny 91 32.8 53 11.7 27 27 SE 15 24 30.04 1017 10 16 0.00 0.00
3:53 pm 15:53 Sunny 91 32.8 54 12.2 28 28 ESE 13 20 30.03 1017 10 16 0.00 0.00
4:53 pm 16:53 Sunny 91 32.8 53 11.7 27 27 ESE 15 24 30.01 1016 10 16 0.00 0.00
5:53 pm 17:53 Sunny 90 32.2 53 11.7 28 28 ESE 15 24 30.01 1016 10 16 0.00 0.00
6:53 pm 18:53 Sunny 86 30 57 13.9 37 37 ESE 15 24 30.01 1016 10 16 0.00 0.00
7:53 pm 19:53 Sunny 81 27.2 58 14.4 45 45 ESE 10 17 30.02 1017 10 16 0.00 0.00
8:53 pm 20:53 Clear 75 23.9 58 14.4 55 55 ESE 9 15 30.04 1017 10 16 0.00 0.00
9:53 pm 21:53 Clear 72 22.2 58 14.4 61 61 ESE 9 15 30.06 1018 10 16 0.00 0.00
10:53 pm 22:53 Clear 69 20.6 58 14.4 68 68 ESE 8 13 30.08 1019 10 16 0.00 0.00
11:53 pm 23:53 Clear 67 19.4 58 14.4 73 73 E 6 9 30.08 1019 10 16 0.00 0.00

Powered by AerisWeather